• In Czech Republic
  • List of Countries
  • For 7 days
  • Water Temperature
  • Satellite Maps
  • Weather Map
  • Weather Widgets
  • user-avatar
    Login

    Hourly Weather Idzhewan

    Today, 19 August, Saturday

    Time Temperature Precipitation Wind Pressure Humidity
    00:00 +22°C° 0 mm 1 mps 694 mmHg 70%
    01:00 +22°C° 0 mm 1 mps 694 mmHg 71%
    02:00 +21°C° 0 mm 1 mps 694 mmHg 72%
    03:00 +21°C° 0 mm 1 mps 694 mmHg 74%
    04:00 +21°C° 0 mm 1 mps 694 mmHg 74%
    05:00 +21°C° 0 mm 1 mps 694 mmHg 75%
    06:00 +21°C° 0 mm 1 mps 694 mmHg 75%
    07:00 +23°C° 0 mm 2 mps 695 mmHg 68%
    08:00 +25°C° 0 mm 2 mps 695 mmHg 60%
    09:00 +27°C° 0 mm 2 mps 695 mmHg 54%
    10:00 +28°C° 0.1 mm 3 mps 695 mmHg 50%
    11:00 +29°C° 0.1 mm 3 mps 695 mmHg 47%
    12:00 +31°C° 0.1 mm 3 mps 695 mmHg 44%
    13:00 +32°C° 0 mm 4 mps 695 mmHg 42%
    14:00 +33°C° 0 mm 4 mps 695 mmHg 41%
    15:00 +33°C° 0 mm 4 mps 695 mmHg 38%
    16:00 +32°C° 0 mm 4 mps 695 mmHg 40%
    17:00 +30°C° 0 mm 4 mps 695 mmHg 41%
    18:00 +29°C° 0 mm 4 mps 695 mmHg 43%
    19:00 +27°C° 0 mm 3 mps 695 mmHg 46%
    20:00 +25°C° 0 mm 2 mps 695 mmHg 50%
    21:00 +23°C° 0 mm 2 mps 695 mmHg 53%
    22:00 +21°C° 0 mm 2 mps 695 mmHg 54%
    23:00 +22°C° 0 mm 1 mps 695 mmHg 56%

    Tomorrow, 20 August, Sunday

    Time Temperature Precipitation Wind Pressure Humidity
    00:00 +21°C° 0 mm 1 mps 695 mmHg 57%
    01:00 +21°C° 0 mm 1 mps 695 mmHg 59%
    02:00 +20°C° 0 mm 1 mps 695 mmHg 60%
    03:00 +20°C° 0 mm 1 mps 695 mmHg 62%
    04:00 +20°C° 0 mm 1 mps 695 mmHg 62%
    05:00 +20°C° 0 mm 1 mps 695 mmHg 62%
    06:00 +19°C° 0 mm 2 mps 695 mmHg 63%
    07:00 +21°C° 0 mm 2 mps 695 mmHg 55%
    08:00 +24°C° 0 mm 2 mps 695 mmHg 48%
    09:00 +27°C° 0 mm 2 mps 695 mmHg 41%
    10:00 +28°C° 0 mm 2 mps 695 mmHg 37%
    11:00 +29°C° 0 mm 3 mps 695 mmHg 34%
    12:00 +31°C° 0 mm 3 mps 695 mmHg 31%
    13:00 +31°C° 0 mm 3 mps 694 mmHg 31%
    14:00 +33°C° 0 mm 4 mps 694 mmHg 30%
    15:00 +33°C° 0 mm 4 mps 694 mmHg 29%
    16:00 +31°C° 0 mm 3 mps 694 mmHg 32%
    17:00 +30°C° 0 mm 3 mps 694 mmHg 35%
    18:00 +29°C° 0 mm 2 mps 693 mmHg 38%
    19:00 +27°C° 0 mm 2 mps 694 mmHg 41%
    20:00 +25°C° 0 mm 2 mps 694 mmHg 44%
    21:00 +23°C° 0 mm 2 mps 694 mmHg 47%
    22:00 +23°C° 0 mm 2 mps 694 mmHg 48%
    23:00 +21°C° 0 mm 2 mps 694 mmHg 49%

    Day after tomorrow, 21 August, Monday

    Time Temperature Precipitation Wind Pressure Humidity
    00:00 +21°C° 0 mm 1 mps 694 mmHg 50%
    01:00 +21°C° 0 mm 1 mps 694 mmHg 51%
    02:00 +19°C° 0 mm 2 mps 694 mmHg 52%
    03:00 +19°C° 0 mm 2 mps 694 mmHg 53%
    04:00 +19°C° 0 mm 2 mps 694 mmHg 54%
    05:00 +19°C° 0 mm 2 mps 694 mmHg 54%
    06:00 +19°C° 0 mm 2 mps 694 mmHg 55%
    07:00 +21°C° 0 mm 2 mps 694 mmHg 49%
    08:00 +25°C° 0 mm 2 mps 694 mmHg 43%
    09:00 +28°C° 0 mm 2 mps 694 mmHg 37%
    10:00 +29°C° 0 mm 2 mps 694 mmHg 34%
    11:00 +30°C° 0 mm 2 mps 694 mmHg 31%
    12:00 +33°C° 0 mm 3 mps 693 mmHg 29%
    13:00 +33°C° 0 mm 3 mps 693 mmHg 28%
    14:00 +34°C° 0 mm 3 mps 693 mmHg 28%
    15:00 +34°C° 0 mm 3 mps 692 mmHg 27%
    16:00 +33°C° 0 mm 3 mps 692 mmHg 30%
    17:00 +31°C° 0 mm 3 mps 692 mmHg 34%
    18:00 +30°C° 0 mm 2 mps 692 mmHg 37%
    19:00 +28°C° 0 mm 2 mps 692 mmHg 41%
    20:00 +26°C° 0 mm 2 mps 692 mmHg 45%
    21:00 +24°C° 0 mm 2 mps 692 mmHg 49%
    22:00 +23°C° 0 mm 1 mps 692 mmHg 50%
    23:00 +23°C° 0 mm 1 mps 692 mmHg 51%

    22 August, Tuesday

    Time Temperature Precipitation Wind Pressure Humidity
    00:00 +22°C° 0 mm 1 mps 692 mmHg 52%
    01:00 +22°C° 0 mm 1 mps 692 mmHg 54%
    02:00 +21°C° 0 mm 1 mps 692 mmHg 55%
    03:00 +20°C° 0 mm 2 mps 692 mmHg 56%
    04:00 +20°C° 0 mm 2 mps 692 mmHg 56%
    05:00 +20°C° 0 mm 2 mps 692 mmHg 56%
    06:00 +20°C° 0 mm 2 mps 692 mmHg 56%
    07:00 +24°C° 0 mm 1 mps 692 mmHg 49%
    08:00 +26°C° 0 mm 1 mps 692 mmHg 41%
    09:00 +29°C° 0 mm 1 mps 693 mmHg 34%
    10:00 +31°C° 0 mm 2 mps 692 mmHg 31%
    11:00 +32°C° 0 mm 2 mps 692 mmHg 28%
    12:00 +35°C° 0 mm 3 mps 692 mmHg 26%
    13:00 +35°C° 0 mm 3 mps 692 mmHg 25%
    14:00 +35°C° 0 mm 3 mps 691 mmHg 25%
    15:00 +36°C° 0 mm 3 mps 691 mmHg 25%
    16:00 +34°C° 0 mm 3 mps 691 mmHg 28%
    17:00 +33°C° 0 mm 3 mps 691 mmHg 32%
    18:00 +31°C° 0 mm 2 mps 691 mmHg 36%
    19:00 +29°C° 0 mm 2 mps 691 mmHg 39%
    20:00 +27°C° 0 mm 2 mps 691 mmHg 43%
    21:00 +25°C° 0 mm 2 mps 692 mmHg 46%
    22:00 +24°C° 0 mm 1 mps 692 mmHg 47%
    23:00 +23°C° 0 mm 1 mps 692 mmHg 48%

    23 August, Wednesday

    Time Temperature Precipitation Wind Pressure Humidity
    00:00 +22°C° 0 mm 1 mps 692 mmHg 49%
    01:00 +22°C° 0 mm 1 mps 692 mmHg 50%
    02:00 +21°C° 0 mm 1 mps 692 mmHg 51%
    03:00 +21°C° 0 mm 1 mps 692 mmHg 52%
    04:00 +21°C° 0 mm 1 mps 692 mmHg 52%
    05:00 +20°C° 0 mm 2 mps 693 mmHg 53%
    06:00 +20°C° 0 mm 2 mps 693 mmHg 53%
    07:00 +23°C° 0 mm 2 mps 693 mmHg 47%
    08:00 +26°C° 0 mm 2 mps 693 mmHg 41%
    09:00 +28°C° 0 mm 2 mps 694 mmHg 35%
    10:00 +30°C° 0 mm 2 mps 694 mmHg 33%
    11:00 +31°C° 0 mm 3 mps 693 mmHg 30%
    12:00 +34°C° 0 mm 4 mps 693 mmHg 27%
    13:00 +34°C° 0 mm 4 mps 693 mmHg 27%
    14:00 +34°C° 0 mm 4 mps 693 mmHg 27%
    15:00 +35°C° 0 mm 4 mps 693 mmHg 26%
    16:00 +34°C° 0 mm 4 mps 693 mmHg 29%
    17:00 +31°C° 0 mm 3 mps 693 mmHg 32%
    18:00 +30°C° 0 mm 3 mps 693 mmHg 35%
    19:00 +28°C° 0 mm 3 mps 694 mmHg 38%
    20:00 +26°C° 0 mm 2 mps 694 mmHg 40%
    21:00 +24°C° 0 mm 2 mps 695 mmHg 43%
    22:00 +23°C° 0 mm 2 mps 695 mmHg 45%
    23:00 +23°C° 0 mm 2 mps 695 mmHg 47%

    24 August, Thursday

    Time Temperature Precipitation Wind Pressure Humidity
    00:00 +21°C° 0 mm 2 mps 695 mmHg 49%
    01:00 +20°C° 0 mm 2 mps 695 mmHg 50%
    02:00 +20°C° 0 mm 2 mps 695 mmHg 52%
    03:00 +19°C° 0 mm 2 mps 695 mmHg 54%
    04:00 +19°C° 0 mm 2 mps 695 mmHg 55%
    05:00 +19°C° 0 mm 2 mps 695 mmHg 56%
    06:00 +19°C° 0 mm 2 mps 696 mmHg 56%
    07:00 +23°C° 0 mm 2 mps 696 mmHg 50%
    08:00 +25°C° 0 mm 2 mps 696 mmHg 44%
    09:00 +28°C° 0 mm 2 mps 696 mmHg 38%
    10:00 +29°C° 0 mm 2 mps 696 mmHg 35%
    11:00 +31°C° 0 mm 3 mps 696 mmHg 31%
    12:00 +33°C° 0 mm 4 mps 696 mmHg 27%
    13:00 +34°C° 0 mm 4 mps 696 mmHg 27%
    14:00 +34°C° 0 mm 4 mps 696 mmHg 26%
    15:00 +34°C° 0 mm 4 mps 695 mmHg 25%
    16:00 +33°C° 0 mm 4 mps 696 mmHg 27%
    17:00 +31°C° 0 mm 3 mps 696 mmHg 28%
    18:00 +29°C° 0 mm 3 mps 696 mmHg 30%
    19:00 +27°C° 0 mm 2 mps 696 mmHg 32%
    20:00 +25°C° 0 mm 2 mps 696 mmHg 34%
    21:00 +23°C° 0 mm 2 mps 697 mmHg 35%
    22:00 +23°C° 0 mm 2 mps 697 mmHg 36%
    23:00 +21°C° 0 mm 2 mps 697 mmHg 37%
    Show more